Tracking 31027 objects as of 19-Jul-2025
HD Live streaming from Space Station
objects crossing your sky now

SL-8 DEB

Track SL-8 DEB now!
10-day predictions


NORAD ID: 20435
Int'l Code: 1990-004D
Perigee: 680.1 km
Apogee: 701.0 km
Inclination: 74.0 °
Period: 98.4 minutes
Semi major axis: 7061 km
RCS: 0.0066 m2 (small)
Launch date: January 18, 1990
Source: Commonwealth of Independent States (former USSR) (CIS)
Launch site: PLESETSK MISSILE AND SPACE COMPLEX (PKMTR)

Note: This is SATELLITE DEBRIS
Your satellite tracking list
STARLINK-31009
Track 1 satellite(s)




NASA's NSSDC Master Catalog

Two Line Element Set (TLE):
1 20435U 90004D   25199.54702697  .00001293  00000-0  25772-3 0  9994
2 20435  74.0222 229.3643 0014756 310.1782 203.1199 14.63027926873594
Source of the keplerian elements: AFSPC